{"data":{"norad_id":64532,"epoch":"2026-05-25T01:09:36.054144Z","epoch_age_seconds":74335,"freshness":"FRESH","line1":"1 64532U 25135E   26145.04833396  .00010232  00000+0  40481-3 0  9997","line2":"2 64532  97.4703 261.2934 0003409 232.6512 127.4416 15.25647458 51396","mean_motion":15.25647458,"eccentricity":0.0003409,"inclination_deg":97.4703,"raan_deg":261.2934,"arg_perigee_deg":232.6512,"mean_anomaly_deg":127.4416,"bstar":0.00040481,"rev_number":5139,"period_min":94.386156673949,"perigee_km":486.50097642485,"apogee_km":491.18288265901,"semimajor_km":6866.9789295419,"source":"CELESTRAK","updated_at":"2026-05-25T13:38:04.580491Z"}}